Location: Newark
(12.4436°N, 0.6167°W)
Time: 21:15:27
(UTC+00:00)

Vanguard 1 - Pass Details

Date: 14 December 2019
Orbit: 651 x 3832 km, 34.2° (Epoch: 17 January)

Event Time Altitude Azimuth Distance (km) Brightness Sun altitude
Rises 09:15:13 0° 305° (NW) 7,441 14.1 36.7°
Reaches altitude 10° 09:21:01 10° 309° (NW) 6,022 13.7 37.8°
Maximum altitude 09:37:30 59° 25° (NNE) 2,228 12.3 40.7°
Drops below altitude 10° 09:46:14 10° 104° (ESE) 3,369 13.6 42.1°
Sets 09:48:32 0° 108° (ESE) 4,062 13.9 42.5°
